Weather History for KONT - May, 2009

Change the Weather History Date:

Sunday, May 10, 2009

  Actual Average Record
Temperature  
Mean Temperature 70 °F 66 °F  
Max Temperature 83 °F 78 °F 90 °F (2007)
Min Temperature 57 °F 55 °F 46 °F (2003)
Degree Days  
Heating Degree Days 0 1  
Month to date heating degree days 3 18  
Since 1 July heating degree days 1255 1511  
Cooling Degree Days 5 3  
Month to date cooling degree days 58 29  
Year to date cooling degree days 158 88  
Growing Degree Days 20 (Base 50)    
Moisture  
Dew Point 54 °F    
Average Humidity 64    
Maximum Humidity 93    
Minimum Humidity 34    
Precipitation  
Precipitation 0.00 in 0.02 in 0.29 in (1977)
Month to date precipitation T 0.16  
Year to date precipitation 5.16 10.12  
Since 1 July precipitation 9.39 14.78  
Snow  
Snow 0.00 in - - ()
Month to date snowfall 0.0  
Year to date snowfall 0.0  
Since 1 July snowfall 0.0  
Snow Depth 0.00 in    
Sea Level Pressure  
Sea Level Pressure 29.87 in    
Wind  
Wind Speed 6 mph (WSW)    
Max Wind Speed 16 mph    
Max Gust Speed 24 mph    
Visibility 6 miles    
Events      
T = Trace of Precipitation, MM = Missing Value Source: NWS Daily Summary

Daily Weather History Graph

Daily Weather History Graph

Search for Another Location

Airport or City:

Trip Planner

Search our weather history database for the weather conditions in past years. The results will help you decide how hot, cold, wet, or windy it might be!

Date:

Astronomy

May. 10, 2009 Rise Set
Actual Time 5:52 AM PDT 7:41 PM PDT
Civil Twilight 5:25 AM PDT 8:08 PM PDT
Nautical Twilight 4:52 AM PDT 8:42 PM PDT
Astronomical Twilight 4:17 AM PDT 9:17 PM PDT
Moon 9:39 PM PDT (5/10) 6:34 AM PDT (5/10)
Length of Visible Light 14h 43m
Length of Day
13h 49m
Full, 97% of the Moon is Illuminated
May 10
Full
May 17
Last Quarter
May 24
New
May 30
First Quarter
Jun 7
Full

Hourly Weather History & Observations

Time (PDT) Temp. Heat Index Dew Point Humidity Pressure Visibility Wind Dir Wind Speed Gust Speed Precip Events Conditions
12:53 AM 59.0 °F - 54.0 °F 83% 29.86 in 6.0 mi West 5.8 mph - N/A   Haze
1:53 AM 57.2 °F - 53.6 °F 88% 29.89 in 5.0 mi WSW 4.6 mph - N/A   Clear
2:53 AM 57.9 °F - 55.0 °F 90% 29.86 in 4.0 mi WSW 3.5 mph - N/A   Clear
3:09 AM 57.2 °F - 55.4 °F 94% 29.89 in 4.0 mi WSW 3.5 mph - N/A   Scattered Clouds
3:19 AM 57.2 °F - 55.4 °F 94% 29.89 in 4.0 mi West 4.6 mph - N/A   Mostly Cloudy
3:53 AM 57.9 °F - 55.0 °F 90% 29.86 in 4.0 mi West 4.6 mph - N/A   Overcast
4:53 AM 57.2 °F - 55.4 °F 94% 29.89 in 4.0 mi Calm Calm - N/A   Overcast
5:53 AM 57.9 °F - 55.0 °F 90% 29.87 in 3.0 mi Calm Calm - N/A   Overcast
6:33 AM 59.0 °F - 55.4 °F 88% 29.90 in 2.5 mi NE 3.5 mph - N/A   Overcast
6:53 AM 59.0 °F - 55.0 °F 87% 29.88 in 2.0 mi Calm Calm - N/A   Overcast
7:53 AM 60.1 °F - 55.0 °F 83% 29.89 in 2.0 mi Calm Calm - N/A   Haze
8:24 AM 62.6 °F - 55.4 °F 77% 29.91 in 2.5 mi Calm Calm - N/A   Haze
8:53 AM 62.1 °F - 55.9 °F 80% 29.90 in 2.5 mi SSW 3.5 mph - N/A   Haze
9:48 AM 64.4 °F - 55.4 °F 73% 29.93 in 3.0 mi SW 6.9 mph - N/A   Haze
9:53 AM 64.9 °F - 55.9 °F 73% 29.90 in 3.0 mi SW 6.9 mph - N/A   Haze
10:53 AM 70.0 °F - 55.9 °F 61% 29.90 in 4.0 mi West 6.9 mph - N/A   Haze
11:53 AM 73.0 °F - 55.9 °F 55% 29.89 in 5.0 mi Variable 5.8 mph - N/A   Haze
12:53 PM 78.1 °F - 55.0 °F 45% 29.86 in 8.0 mi West 8.1 mph - N/A   Clear
1:53 PM 80.1 °F - 52.0 °F 38% 29.84 in 9.0 mi Variable 5.8 mph - N/A   Clear
2:53 PM 82.0 °F - 51.1 °F 34% 29.83 in 10.0 mi WSW 12.7 mph - N/A   Clear
3:53 PM 81.0 °F - 52.0 °F 36% 29.82 in 10.0 mi West 11.5 mph 19.6 mph N/A   Clear
4:53 PM 80.1 °F 79.9 °F 53.1 °F 39% 29.81 in 10.0 mi WSW 11.5 mph - N/A   Clear
5:53 PM 78.1 °F - 52.0 °F 40% 29.81 in 10.0 mi West 11.5 mph - N/A   Clear
6:53 PM 75.0 °F - 53.1 °F 46% 29.82 in 10.0 mi WSW 11.5 mph - N/A   Clear
7:53 PM 72.0 °F - 54.0 °F 53% 29.83 in 10.0 mi West 8.1 mph - N/A   Clear
8:53 PM 69.1 °F - 54.0 °F 58% 29.85 in 10.0 mi West 5.8 mph - N/A   Clear
9:53 PM 66.9 °F - 54.0 °F 63% 29.86 in 10.0 mi SSW 4.6 mph - N/A   Clear
10:53 PM 64.9 °F - 54.0 °F 68% 29.86 in 9.0 mi South 5.8 mph - N/A   Clear
11:53 PM 63.0 °F - 54.0 °F 72% 29.86 in 10.0 mi SSW 4.6 mph - N/A   Clear